| time (UTC) | temp F | wind direction | speed MPH | gust MPH | rain 1hr in | rain 24hr in | rain mn in | humidity % | barometer mb |
| 20260903022542 | 92 | 248 | 0.0 | 1.0 | 0.00 | 0.00 | 0.00 | 42 | 1008.2 |
| 20260903021542 | 92 | 210 | 0.0 | 0.0 | 0.00 | 0.00 | 0.00 | 41 | 1008.2 |
| 20260903020527 | 92 | 177 | 0.0 | 1.0 | 0.00 | 0.00 | 0.00 | 41 | 1008.2 |
| 20260903015539 | 93 | 207 | 0.0 | 1.0 | 0.00 | 0.00 | 0.00 | 41 | |
| 20260903014526 | 93 | 287 | 0.0 | 0.0 | 0.00 | 0.00 | 0.00 | 41 | 1008.3 |
| 20260903013532 | 93 | 175 | 0.0 | 1.0 | 0.00 | 0.00 | 0.00 | 41 | 1008.1 |
| 20260903012530 | 94 | 88 | 0.0 | 1.0 | 0.00 | 0.00 | 0.00 | 41 | 1008.1 |
| 20260903011524 | 94 | 0.0 | 0.0 | 0.00 | 0.00 | 0.00 | 41 | 1008.0 | |
| 20260903010526 | 94 | 0.0 | 0.0 | 0.00 | 0.00 | 0.00 | 40 | 1007.9 | |
| 20260903005524 | 95 | 253 | 0.0 | 0.0 | 0.00 | 0.00 | 0.00 | 40 | 1008.0 |
| 20260903004523 | 95 | 183 | 1.0 | 1.0 | 0.00 | 0.00 | 0.00 | 40 | 1008.0 |
| 20260903003521 | 95 | 214 | 1.0 | 1.0 | 0.00 | 0.00 | 0.00 | 40 | 1008.1 |
| 20260903002522 | 95 | 0.0 | 0.0 | 0.00 | 0.00 | 0.00 | 40 | 1008.1 | |
| 20260903001527 | 95 | 0.0 | 0.0 | 0.00 | 0.00 | 0.00 | 41 | 1008.1 | |
| 20260903000540 | 95 | 248 | 0.0 | 0.0 | 0.00 | 0.00 | 0.00 | 41 | 1008.1 |
| 20260902235535 | 95 | 0.0 | 0.0 | 0.00 | 0.00 | 0.00 | 41 | 1008.1 | |
| 20260902234546 | 95 | 0.0 | 0.0 | 0.00 | 0.00 | 0.00 | 41 | 1008.1 | |
| 20260902233521 | 95 | 315 | 0.0 | 1.0 | 0.00 | 0.00 | 0.00 | 41 | 1008.1 |
| 20260902232525 | 95 | 9 | 0.0 | 0.0 | 0.00 | 0.00 | 0.00 | 40 | 1008.1 |
| 20260902231531 | 96 | 335 | 0.0 | 0.0 | 0.00 | 0.00 | 0.00 | 40 | 1008.1 |
| 20260902230532 | 96 | 14 | 0.0 | 1.0 | 0.00 | 0.00 | 0.00 | 39 | 1008.3 |
| 20260902225604 | 96 | 322 | 0.0 | 0.0 | 0.00 | 0.00 | 0.00 | 39 | 1008.6 |
| 20260902224524 | 96 | 290 | 0.0 | 1.0 | 0.00 | 0.00 | 0.00 | 39 | 1008.6 |
| 20260902223522 | 97 | 273 | 1.0 | 1.0 | 0.00 | 0.00 | 0.00 | 38 | 1008.7 |
| 20260902222548 | 97 | 277 | 0.0 | 1.0 | 0.00 | 0.00 | 0.00 | 40 | 1008.7 |
| 20260902221534 | 97 | 296 | 1.0 | 1.0 | 0.00 | 0.00 | 0.00 | 40 | 1008.8 |
| 20260902220634 | 97 | 308 | 1.0 | 2.0 | 0.00 | 0.00 | 0.00 | 39 | 1008.9 |
| 20260902215520 | 98 | 334 | 2.0 | 2.0 | 0.00 | 0.00 | 0.00 | 39 | 1009.1 |
| 20260902214529 | 98 | 353 | 1.0 | 1.0 | 0.00 | 0.00 | 0.00 | 38 | 1009.1 |
| 20260902213527 | 98 | 290 | 1.0 | 1.0 | 0.00 | 0.00 | 0.00 | 38 | 1009.0 |
| 20260902212526 | 99 | 319 | 1.0 | 1.0 | 0.00 | 0.00 | 0.00 | 38 | 1009.1 |
| 20260902211524 | 99 | 283 | 1.0 | 2.0 | 0.00 | 0.00 | 0.00 | 38 | 1009.4 |
| 20260902210521 | 99 | 341 | 1.0 | 1.0 | 0.00 | 0.00 | 0.00 | 36 | 1009.6 |
| 20260902205519 | 99 | 273 | 1.0 | 1.0 | 0.00 | 0.00 | 0.00 | 37 | 1009.6 |
| 20260902204530 | 98 | 245 | 1.0 | 1.0 | 0.00 | 0.00 | 0.00 | 38 | 1009.7 |
| 20260902203524 | 99 | 279 | 2.0 | 3.0 | 0.00 | 0.00 | 0.00 | 38 | 1009.8 |
| 20260902202534 | 99 | 275 | 2.0 | 2.0 | 0.00 | 0.00 | 0.00 | 39 | 1009.8 |
| 20260902201540 | 98 | 254 | 1.0 | 1.0 | 0.00 | 0.00 | 0.00 | 38 | 1009.9 |
| 20260902200529 | 99 | 263 | 2.0 | 2.0 | 0.00 | 0.00 | 0.00 | 39 | 1010.1 |
| 20260902195551 | 99 | 304 | 2.0 | 2.0 | 0.00 | 0.00 | 0.00 | 40 | 1010.3 |
| 20260902194525 | 99 | 347 | 2.0 | 2.0 | 0.00 | 0.00 | 0.00 | 40 | 1010.6 |
| 20260902193531 | 99 | 269 | 1.0 | 2.0 | 0.00 | 0.00 | 0.00 | 40 | 1010.9 |
| 20260902192540 | 98 | 308 | 2.0 | 2.0 | 0.00 | 0.00 | 0.00 | 41 | 1011.0 |
| 20260902191525 | 98 | 274 | 1.0 | 2.0 | 0.00 | 0.00 | 0.00 | 41 | 1011.1 |
| 20260902190548 | 98 | 256 | 1.0 | 2.0 | 0.00 | 0.00 | 0.00 | 41 | 1011.3 |
| 20260902185546 | 98 | 301 | 2.0 | 2.0 | 0.00 | 0.00 | 0.00 | 42 | 1011.4 |
| 20260902184531 | 98 | 269 | 1.0 | 1.0 | 0.00 | 0.00 | 0.00 | 42 | 1011.5 |
| 20260902183606 | 98 | 270 | 1.0 | 1.0 | 0.00 | 0.00 | 0.00 | 42 | 1011.6 |
| 20260902182522 | 98 | 281 | 1.0 | 1.0 | 0.00 | 0.00 | 0.00 | 42 | 1011.8 |
| 20260902181551 | 97 | 218 | 1.0 | 1.0 | 0.00 | 0.00 | 0.00 | 42 | 1011.8 |
| 20260902180539 | 97 | 272 | 1.0 | 1.0 | 0.00 | 0.00 | 0.00 | 43 | 1011.9 |
| 20260902175527 | 97 | 248 | 1.0 | 1.0 | 0.00 | 0.00 | 0.00 | 43 | 1011.9 |
| 20260902174544 | 96 | 250 | 1.0 | 1.0 | 0.00 | 0.00 | 0.00 | 44 | 1012.0 |
| 20260902173528 | 96 | 344 | 1.0 | 1.0 | 0.00 | 0.00 | 0.00 | 44 | 1012.1 |
| 20260902172521 | 95 | 298 | 1.0 | 1.0 | 0.00 | 0.00 | 0.00 | 45 | 1012.2 |
| 20260902171550 | 95 | 318 | 1.0 | 1.0 | 0.00 | 0.00 | 0.00 | 45 | 1012.2 |
| 20260902170525 | 94 | 349 | 1.0 | 1.0 | 0.00 | 0.00 | 0.00 | 47 | 1012.2 |
| 20260902165536 | 94 | 334 | 1.0 | 1.0 | 0.00 | 0.00 | 0.00 | 47 | 1012.1 |
| 20260902164534 | 93 | 266 | 1.0 | 1.0 | 0.00 | 0.00 | 0.00 | 47 | 1012.1 |
| 20260902163550 | 92 | 215 | 1.0 | 1.0 | 0.00 | 0.00 | 0.00 | 48 | 1012.1 |
| 20260902162546 | 91 | 233 | 0.0 | 0.0 | 0.00 | 0.00 | 0.00 | 49 | 1012.2 |
| 20260902161521 | 91 | 196 | 0.0 | 0.0 | 0.00 | 0.00 | 0.00 | 49 | 1012.2 |
| 20260902160546 | 90 | 187 | 0.0 | 1.0 | 0.00 | 0.00 | 0.00 | 50 | 1012.1 |
| 20260902155531 | 90 | 51 | 0.0 | 0.0 | 0.00 | 0.00 | 0.00 | 51 | 1012.1 |
| 20260902154527 | 89 | 224 | 1.0 | 1.0 | 0.00 | 0.00 | 0.00 | 51 | 1012.1 |
| 20260902153603 | 88 | 147 | 1.0 | 1.0 | 0.00 | 0.00 | 0.00 | 52 | 1012.1 |
| 20260902152538 | 87 | 215 | 1.0 | 1.0 | 0.00 | 0.00 | 0.00 | 53 | 1012.1 |
| 20260902151523 | 87 | 187 | 0.0 | 1.0 | 0.00 | 0.00 | 0.00 | 53 | 1012.1 |
| 20260902150548 | 86 | 143 | 0.0 | 1.0 | 0.00 | 0.00 | 0.00 | 54 | 1012.1 |
| 20260902145523 | 86 | 181 | 0.0 | 1.0 | 0.00 | 0.00 | 0.00 | 54 | 1012.1 |
| 20260902144531 | 85 | 0.0 | 0.0 | 0.00 | 0.00 | 0.00 | 54 | 1012.1 | |
| 20260902143530 | 84 | 0.0 | 0.0 | 0.00 | 0.00 | 0.00 | 54 | 1012.1 | |
| 20260902142539 | 83 | 0.0 | 0.0 | 0.00 | 0.00 | 0.00 | 54 | 1012.1 | |
| 20260902141546 | 82 | 0.0 | 0.0 | 0.00 | 0.00 | 0.00 | 54 | 1011.9 | |
| 20260902140523 | 81 | 0.0 | 0.0 | 0.00 | 0.00 | 0.00 | 54 | 1011.8 | |
| 20260902135521 | 80 | 0.0 | 0.0 | 0.00 | 0.00 | 0.00 | 54 | 1011.7 | |
| 20260902134519 | 80 | 0.0 | 0.0 | 0.00 | 0.00 | 0.00 | 54 | ||
| 20260902133547 | 79 | 0.0 | 0.0 | 0.00 | 0.00 | 0.00 | 54 | 1011.6 | |
| 20260902132522 | 79 | 0.0 | 0.0 | 0.00 | 0.00 | 0.00 | 54 | 1011.5 | |
| 20260902131549 | 79 | 0.0 | 0.0 | 0.00 | 0.00 | 0.00 | 55 | 1011.5 | |
| 20260902130555 | 80 | 0.0 | 0.0 | 0.00 | 0.00 | 0.00 | 54 | 1011.3 | |
| 20260902125540 | 80 | 0.0 | 0.0 | 0.00 | 0.00 | 0.00 | 54 | 1011.3 | |
| 20260902124523 | 80 | 0.0 | 0.0 | 0.00 | 0.00 | 0.00 | 54 | 1011.2 | |
| 20260902123520 | 80 | 0.0 | 0.0 | 0.00 | 0.00 | 0.00 | 54 | 1011.1 | |
| 20260902122525 | 80 | 0.0 | 0.0 | 0.00 | 0.00 | 0.00 | 54 | 1011.1 | |
| 20260902121532 | 80 | 0.0 | 0.0 | 0.00 | 0.00 | 0.00 | 54 | 1011.0 | |
| 20260902120538 | 80 | 0.0 | 0.0 | 0.00 | 0.00 | 0.00 | 54 | 1011.0 | |
| 20260902115520 | 80 | 0.0 | 0.0 | 0.00 | 0.00 | 0.00 | 54 | 1010.9 | |
| 20260902114623 | 80 | 0.0 | 0.0 | 0.00 | 0.00 | 0.00 | 54 | 1010.8 | |
| 20260902113543 | 80 | 0.0 | 0.0 | 0.00 | 0.00 | 0.00 | 55 | 1010.8 | |
| 20260902112548 | 80 | 0.0 | 0.0 | 0.00 | 0.00 | 0.00 | 55 | 1010.8 | |
| 20260902111534 | 80 | 0.0 | 0.0 | 0.00 | 0.00 | 0.00 | 55 | 1010.8 | |
| 20260902110531 | 80 | 0.0 | 0.0 | 0.00 | 0.00 | 0.00 | 55 | 1010.8 | |
| 20260902105528 | 80 | 0.0 | 0.0 | 0.00 | 0.00 | 0.00 | 55 | 1010.8 | |
| 20260902104519 | 81 | 0.0 | 0.0 | 0.00 | 0.00 | 0.00 | 55 | 1010.8 | |
| 20260902103525 | 81 | 0.0 | 0.0 | 0.00 | 0.00 | 0.00 | 55 | 1011.0 | |
| 20260902102545 | 81 | 0.0 | 0.0 | 0.00 | 0.00 | 0.00 | 55 | 1011.0 | |
| 20260902101541 | 81 | 0.0 | 0.0 | 0.00 | 0.00 | 0.00 | 54 | 1011.0 | |
| 20260902100528 | 81 | 0.0 | 0.0 | 0.00 | 0.00 | 0.00 | 55 | 1010.8 | |
| 20260902095543 | 81 | 0.0 | 0.0 | 0.00 | 0.00 | 0.00 | 55 | 1010.9 | |
| 20260902094540 | 81 | 0.0 | 0.0 | 0.00 | 0.00 | 0.00 | 55 | 1011.0 | |
| 20260902093529 | 82 | 0.0 | 0.0 | 0.00 | 0.00 | 0.00 | 55 | 1011.0 | |
| 20260902092535 | 81 | 0.0 | 0.0 | 0.00 | 0.00 | 0.00 | 55 | 1010.9 | |
| 20260902091526 | 82 | 0.0 | 0.0 | 0.00 | 0.00 | 0.00 | 56 | 1011.0 | |
| 20260902090540 | 82 | 0.0 | 0.0 | 0.00 | 0.00 | 0.00 | 56 | 1010.9 | |
| 20260902085520 | 82 | 0.0 | 0.0 | 0.00 | 0.00 | 0.00 | 56 | 1010.8 | |
| 20260902084525 | 82 | 0.0 | 0.0 | 0.00 | 0.00 | 0.00 | 56 | 1010.8 | |
| 20260902083532 | 82 | 0.0 | 0.0 | 0.00 | 0.00 | 0.00 | 56 | 1011.0 | |
| 20260902082542 | 83 | 0.0 | 0.0 | 0.00 | 0.00 | 0.00 | 56 | 1010.9 | |
| 20260902081540 | 83 | 0.0 | 0.0 | 0.00 | 0.00 | 0.00 | 55 | 1010.7 | |
| 20260902080537 | 83 | 0.0 | 0.0 | 0.00 | 0.00 | 0.00 | 55 | 1010.6 | |
| 20260902075543 | 83 | 0.0 | 0.0 | 0.00 | 0.00 | 0.00 | 55 | 1010.5 | |
| 20260902074529 | 83 | 0.0 | 0.0 | 0.00 | 0.00 | 0.00 | 55 | 1010.6 | |
| 20260902073535 | 83 | 0.0 | 0.0 | 0.00 | 0.00 | 0.00 | 55 | 1010.6 | |
| 20260902072529 | 84 | 0.0 | 0.0 | 0.00 | 0.00 | 0.00 | 55 | 1010.7 | |
| 20260902071527 | 84 | 0.0 | 0.0 | 0.00 | 0.00 | 0.00 | 55 | 1010.7 | |
| 20260902070602 | 84 | 0.0 | 0.0 | 0.00 | 0.00 | 0.00 | 55 | 1010.6 | |
| 20260902065523 | 84 | 0.0 | 0.0 | 0.00 | 0.00 | 0.00 | 55 | 1010.5 | |
| 20260902064522 | 84 | 0.0 | 0.0 | 0.00 | 0.00 | 0.00 | 55 | 1010.5 | |
| 20260902063519 | 84 | 0.0 | 0.0 | 0.00 | 0.00 | 0.00 | 54 | 1010.4 | |
| 20260902062605 | 85 | 0.0 | 0.0 | 0.00 | 0.00 | 0.00 | 54 | 1010.4 | |
| 20260902061521 | 85 | 0.0 | 0.0 | 0.00 | 0.00 | 0.00 | 54 | 1010.4 | |
| 20260902060524 | 85 | 0.0 | 0.0 | 0.00 | 0.00 | 0.00 | 54 | 1010.4 | |
| 20260902055529 | 85 | 0.0 | 0.0 | 0.00 | 0.00 | 0.00 | 54 | 1010.4 | |
| 20260902054527 | 85 | 0.0 | 0.0 | 0.00 | 0.00 | 0.00 | 54 | 1010.4 | |
| 20260902053622 | 85 | 0.0 | 0.0 | 0.00 | 0.00 | 0.00 | 54 | 1010.4 | |
| 20260902052549 | 86 | 0.0 | 0.0 | 0.00 | 0.00 | 0.00 | 53 | 1010.4 | |
| 20260902051541 | 86 | 0.0 | 0.0 | 0.00 | 0.00 | 0.00 | 53 | 1010.5 | |
| 20260902050547 | 87 | 0.0 | 0.0 | 0.00 | 0.00 | 0.00 | 51 | 1010.5 | |
| 20260902045525 | 87 | 0.0 | 0.0 | 0.00 | 0.00 | 0.00 | 50 | 1010.5 | |
| 20260902044540 | 88 | 0.0 | 0.0 | 0.00 | 0.00 | 0.00 | 50 | 1010.5 | |
| 20260902043538 | 88 | 0.0 | 0.0 | 0.00 | 0.00 | 0.00 | 50 | 1010.5 | |
| 20260902042530 | 88 | 0.0 | 0.0 | 0.00 | 0.00 | 0.00 | 49 | 1010.4 | |
| 20260902041523 | 88 | 0.0 | 0.0 | 0.00 | 0.00 | 0.00 | 50 | 1010.4 | |
| 20260902040521 | 88 | 0.0 | 0.0 | 0.00 | 0.00 | 0.00 | 50 | 1010.3 | |
| 20260902035530 | 88 | 0.0 | 0.0 | 0.00 | 0.00 | 0.00 | 50 | 1010.2 | |
| 20260902034530 | 88 | 0.0 | 0.0 | 0.00 | 0.00 | 0.00 | 50 | 1010.1 | |
| 20260902033547 | 88 | 0.0 | 0.0 | 0.00 | 0.00 | 0.00 | 50 | 1009.8 | |
| 20260902032521 | 88 | 337 | 0.0 | 0.0 | 0.00 | 0.00 | 0.00 | 49 | 1009.7 |
| 20260902031522 | 89 | 0.0 | 0.0 | 0.00 | 0.00 | 0.00 | 50 | 1009.5 | |
| 20260902030520 | 89 | 0.0 | 0.0 | 0.00 | 0.00 | 0.00 | 50 | 1009.3 | |
| 20260902025539 | 90 | 0.0 | 0.0 | 0.00 | 0.00 | 0.00 | 49 | 1008.9 | |
| 20260902024524 | 90 | 0.0 | 0.0 | 0.00 | 0.00 | 0.00 | 49 | 1008.7 | |
| 20260902023538 | 90 | 0.0 | 0.0 | 0.00 | 0.00 | 0.00 | 48 | 1008.6 |